Flag for Austria Weather past 2 weeks in Gmünd, Lower Austria, Austria

Now
39 °F

Chilly.


Feels Like: 39 °F
Forecast: 25 / 33 °F
Wind: 2 mph from West

Location: Retz

Current Time: Mar 2, 2015 at 5:21:11 AM

Latest Report: Mar 2, 2015 at 4:00 AM


Visibility: N/A

Pressure: 29.74 "Hg

Humidity: 98%

Dew point: 38 °F

Location of GmündLocation

Historic Weather in Gmünd — Graph

°F

Gmünd temperature yesterday

Maximum temperature yesterday: 41 °F (at 4:00 PM)
Minimum temperature yesterday: 30 °F (at 6:00 AM)
Average temperature yesterday: 35 °F

Past Weeks' High & Low Weather Summary

 TemperatureHumidityPressure
High46 °F (Feb 16, 2:00 PM)100% (Feb 20, 10:00 AM)30.78 "Hg (Feb 20, 10:00 AM)
Low26 °F (Feb 20, 6:00 AM)51% (Feb 21, 4:00 PM)29.56 "Hg (Feb 23, 4:00 PM)
Average37 °F82%30.07 "Hg
* Reported Feb 15 4:00 AM — Mar 2 4:00 AM, Gmünd, Weather by CustomWeather, © 2015

Note: Actual official high and low records may vary slightly from our data, if they occured in-between our weather recording intervals... More about our weather records

Advertising

Gmünd weather history for previous 24 hours

 ConditionsComfort  
Time TempWeatherWind HumidityBarometerVisibility
4:00 AM
Mon, Mar 2
39 °FChilly.2 mph98%29.74 "HgN/A
3:00 AM39 °FChilly.3 mph97%29.75 "HgN/A
2:00 AM38 °FChilly.2 mph97%29.78 "HgN/A
1:00 AM38 °FChilly.3 mph94%29.79 "HgN/A
12:00 AM39 °FChilly.5 mph91%29.81 "HgN/A
11:00 PM
Sun, Mar 1
39 °FChilly.3 mph91%29.83 "HgN/A
10:00 PM37 °FChilly.2 mph96%29.84 "HgN/A
9:00 PM37 °FChilly.2 mph95%29.85 "HgN/A
8:00 PM38 °FChilly.2 mph96%29.85 "HgN/A
7:00 PM39 °FPassing clouds.5 mph95%29.85 "Hg5 mi
6:00 PM40 °FChilly.5 mph97%29.83 "HgN/A
5:00 PM41 °FFog.3 mph97%29.83 "HgN/A
4:00 PM41 °FQuite cool.2 mph91%29.85 "HgN/A
3:00 PM40 °FChilly.2 mph91%29.86 "HgN/A
2:00 PM37 °FChilly.2 mph90%29.88 "HgN/A
1:00 PM35 °FFog.2 mph94%29.90 "Hg1 mi
12:00 PM33 °FChilly.1 mph99%29.92 "HgN/A
11:00 AM32 °FChilly.1 mph98%29.94 "HgN/A
10:00 AM32 °FChilly.1 mph98%29.95 "HgN/A
9:00 AM31 °FChilly.1 mph99%29.97 "HgN/A
8:00 AM31 °FChilly.2 mph98%29.98 "HgN/A
7:00 AM31 °FFog.3 mph96%29.98 "Hg1 mi
6:00 AM30 °FChilly.1 mph95%30.00 "HgN/A
5:00 AM32 °FChilly.2 mph90%30.01 "HgN/A
Weather by CustomWeather, © 2015

See weather overviewHow to use our weather pages